• In Hungary
  • List of Countries
  • For 7 days
  • Water Temperature
  • Satellite Maps
  • Weather Map
  • News
  • Weather Widgets
  • user-avatar
    Login

    Hourly Weather Springville

    Today, 20 January, Saturday

    Time Temperature Precipitation Wind Pressure Humidity
    00:00 0°C° 0.4 mm 3 mps 632 mmHg 88%
    01:00 +1°C° 0.4 mm 2 mps 632 mmHg 88%
    02:00 +1°C° 0.4 mm 2 mps 632 mmHg 88%
    03:00 +1°C° 0.5 mm 2 mps 631 mmHg 88%
    04:00 -1°C° 0.5 mm 2 mps 631 mmHg 88%
    05:00 -1°C° 0.5 mm 2 mps 631 mmHg 89%
    06:00 -1°C° 0.3 mm 2 mps 631 mmHg 89%
    07:00 -1°C° 0.3 mm 2 mps 631 mmHg 88%
    08:00 -1°C° 0.3 mm 2 mps 630 mmHg 88%
    09:00 -1°C° 0.3 mm 2 mps 631 mmHg 86%
    10:00 -1°C° 0.3 mm 2 mps 631 mmHg 84%
    11:00 +1°C° 0.3 mm 2 mps 631 mmHg 82%
    12:00 0°C° 0.4 mm 3 mps 631 mmHg 83%
    13:00 0°C° 0.4 mm 3 mps 630 mmHg 83%
    14:00 0°C° 0.4 mm 3 mps 630 mmHg 83%
    15:00 -1°C° 0.3 mm 3 mps 630 mmHg 84%
    16:00 -1°C° 0.3 mm 3 mps 630 mmHg 85%
    17:00 -2°C° 0.3 mm 3 mps 630 mmHg 86%
    18:00 -2°C° 0.1 mm 3 mps 630 mmHg 87%
    19:00 -4°C° 0.1 mm 3 mps 630 mmHg 88%
    20:00 -4°C° 0.1 mm 3 mps 631 mmHg 89%
    21:00 -4°C° 0.2 mm 3 mps 631 mmHg 89%
    22:00 -4°C° 0.2 mm 3 mps 631 mmHg 88%
    23:00 -5°C° 0.2 mm 4 mps 632 mmHg 87%

    Tomorrow, 21 January, Sunday

    Time Temperature Precipitation Wind Pressure Humidity
    00:00 -5°C° 0.1 mm 4 mps 632 mmHg 86%
    01:00 -5°C° 0.1 mm 4 mps 632 mmHg 86%
    02:00 -7°C° 0.1 mm 4 mps 633 mmHg 85%
    03:00 -7°C° 0.1 mm 4 mps 633 mmHg 85%
    04:00 -6°C° 0.1 mm 3 mps 634 mmHg 85%
    05:00 -7°C° 0.1 mm 3 mps 634 mmHg 85%
    06:00 -7°C° 0 mm 3 mps 635 mmHg 85%
    07:00 -7°C° 0 mm 3 mps 635 mmHg 85%
    08:00 -7°C° 0 mm 3 mps 636 mmHg 85%
    09:00 -6°C° 0 mm 3 mps 637 mmHg 81%
    10:00 -5°C° 0 mm 3 mps 637 mmHg 77%
    11:00 -4°C° 0 mm 3 mps 638 mmHg 74%
    12:00 -4°C° 0 mm 3 mps 638 mmHg 72%
    13:00 -2°C° 0 mm 3 mps 638 mmHg 71%
    14:00 -3°C° 0 mm 4 mps 638 mmHg 70%
    15:00 -2°C° 0 mm 3 mps 638 mmHg 72%
    16:00 -4°C° 0 mm 3 mps 638 mmHg 74%
    17:00 -3°C° 0 mm 2 mps 639 mmHg 77%
    18:00 -4°C° 0 mm 2 mps 639 mmHg 79%
    19:00 -3°C° 0 mm 1 mps 639 mmHg 81%
    20:00 -4°C° 0 mm 1 mps 640 mmHg 84%
    21:00 -4°C° 0 mm 1 mps 640 mmHg 83%
    22:00 -6°C° 0 mm 2 mps 640 mmHg 83%
    23:00 -6°C° 0 mm 2 mps 640 mmHg 83%

    Day after tomorrow, 22 January, Monday

    Time Temperature Precipitation Wind Pressure Humidity
    00:00 -6°C° 0 mm 2 mps 640 mmHg 82%
    01:00 -6°C° 0 mm 2 mps 640 mmHg 81%
    02:00 -7°C° 0 mm 2 mps 640 mmHg 81%
    03:00 -7°C° 0 mm 2 mps 640 mmHg 79%
    04:00 -7°C° 0 mm 2 mps 640 mmHg 77%
    05:00 -7°C° 0 mm 2 mps 639 mmHg 75%
    06:00 -6°C° 0 mm 2 mps 640 mmHg 73%
    07:00 -6°C° 0 mm 2 mps 640 mmHg 71%
    08:00 -6°C° 0 mm 2 mps 640 mmHg 69%
    09:00 -4°C° 0 mm 2 mps 640 mmHg 65%
    10:00 -2°C° 0 mm 2 mps 641 mmHg 60%
    11:00 -1°C° 0 mm 2 mps 641 mmHg 56%
    12:00 +1°C° 0 mm 2 mps 641 mmHg 57%
    13:00 +1°C° 0 mm 2 mps 640 mmHg 58%
    14:00 +2°C° 0 mm 2 mps 640 mmHg 58%
    15:00 +2°C° 0 mm 2 mps 640 mmHg 62%
    16:00 +2°C° 0 mm 1 mps 639 mmHg 65%
    17:00 +2°C° 0 mm 1 mps 639 mmHg 68%
    18:00 +1°C° 0 mm 1 mps 639 mmHg 70%
    19:00 0°C° 0 mm 1 mps 640 mmHg 71%
    20:00 -1°C° 0 mm 1 mps 640 mmHg 72%
    21:00 -1°C° 0 mm 1 mps 640 mmHg 72%
    22:00 -1°C° 0 mm 1 mps 640 mmHg 73%
    23:00 -2°C° 0 mm 1 mps 640 mmHg 73%

    23 January, Tuesday

    Time Temperature Precipitation Wind Pressure Humidity
    00:00 -2°C° 0 mm 1 mps 640 mmHg 74%
    01:00 -2°C° 0 mm 1 mps 640 mmHg 74%
    02:00 -2°C° 0 mm 1 mps 640 mmHg 75%
    03:00 -2°C° 0 mm 1 mps 640 mmHg 75%
    04:00 -1°C° 0 mm 1 mps 640 mmHg 75%
    05:00 -1°C° 0 mm 1 mps 640 mmHg 75%
    06:00 -2°C° 0 mm 1 mps 640 mmHg 75%
    07:00 -2°C° 0 mm 1 mps 640 mmHg 74%
    08:00 -2°C° 0 mm 1 mps 640 mmHg 74%
    09:00 0°C° 0 mm 1 mps 640 mmHg 71%
    10:00 +1°C° 0 mm 1 mps 641 mmHg 67%
    11:00 +3°C° 0 mm 1 mps 641 mmHg 64%
    12:00 +3°C° 0 mm 1 mps 641 mmHg 63%
    13:00 +4°C° 0 mm 1 mps 640 mmHg 63%
    14:00 +4°C° 0 mm 1 mps 640 mmHg 63%
    15:00 +4°C° 0 mm 1 mps 640 mmHg 66%
    16:00 +3°C° 0 mm 1 mps 640 mmHg 70%
    17:00 +2°C° 0 mm 1 mps 640 mmHg 73%
    18:00 +1°C° 0 mm 1 mps 640 mmHg 75%
    19:00 +1°C° 0 mm 1 mps 640 mmHg 76%
    20:00 0°C° 0 mm 1 mps 641 mmHg 77%
    21:00 0°C° 0 mm 1 mps 641 mmHg 76%
    22:00 -1°C° 0 mm 1 mps 641 mmHg 75%
    23:00 -1°C° 0 mm 1 mps 641 mmHg 74%

    24 January, Wednesday

    Time Temperature Precipitation Wind Pressure Humidity
    00:00 -1°C° 0 mm 1 mps 641 mmHg 72%
    01:00 -3°C° 0 mm 2 mps 641 mmHg 71%
    02:00 -3°C° 0 mm 2 mps 641 mmHg 69%
    03:00 -3°C° 0 mm 2 mps 641 mmHg 68%
    04:00 -3°C° 0 mm 2 mps 641 mmHg 67%
    05:00 -3°C° 0 mm 2 mps 641 mmHg 65%
    06:00 -3°C° 0 mm 2 mps 641 mmHg 65%
    07:00 -3°C° 0 mm 2 mps 641 mmHg 64%
    08:00 -3°C° 0 mm 2 mps 641 mmHg 63%
    09:00 -1°C° 0 mm 2 mps 641 mmHg 60%
    10:00 +2°C° 0 mm 2 mps 641 mmHg 58%
    11:00 +3°C° 0 mm 3 mps 641 mmHg 55%
    12:00 +4°C° 0 mm 3 mps 640 mmHg 54%
    13:00 +4°C° 0 mm 3 mps 640 mmHg 53%
    14:00 +5°C° 0 mm 3 mps 639 mmHg 52%
    15:00 +5°C° 0 mm 3 mps 639 mmHg 56%
    16:00 +4°C° 0 mm 3 mps 638 mmHg 59%
    17:00 +3°C° 0 mm 3 mps 638 mmHg 63%
    18:00 +2°C° 0 mm 3 mps 637 mmHg 64%
    19:00 +1°C° 0 mm 3 mps 637 mmHg 64%
    20:00 0°C° 0 mm 3 mps 637 mmHg 65%
    21:00 0°C° 0 mm 3 mps 636 mmHg 63%
    22:00 -1°C° 0 mm 4 mps 636 mmHg 62%
    23:00 -1°C° 0 mm 4 mps 636 mmHg 61%

    25 January, Thursday

    Time Temperature Precipitation Wind Pressure Humidity
    00:00 -1°C° 0 mm 4 mps 635 mmHg 60%
    01:00 -1°C° 0 mm 4 mps 635 mmHg 59%
    02:00 -1°C° 0 mm 4 mps 634 mmHg 58%
    03:00 -1°C° 0 mm 4 mps 634 mmHg 58%
    04:00 -1°C° 0 mm 4 mps 633 mmHg 58%
    05:00 -1°C° 0 mm 4 mps 633 mmHg 58%
    06:00 -1°C° 0 mm 4 mps 632 mmHg 59%
    07:00 0°C° 0 mm 4 mps 632 mmHg 59%
    08:00 0°C° 0 mm 4 mps 632 mmHg 59%
    09:00 +1°C° 0 mm 4 mps 631 mmHg 58%
    10:00 +3°C° 0 mm 4 mps 631 mmHg 56%
    11:00 +4°C° 0 mm 4 mps 631 mmHg 54%
    12:00 +3°C° 0 mm 5 mps 630 mmHg 52%
    13:00 +5°C° 0 mm 5 mps 630 mmHg 51%
    14:00 +4°C° 0 mm 6 mps 629 mmHg 49%
    15:00 +3°C° 0.5 mm 5 mps 629 mmHg 60%
    16:00 +2°C° 0.5 mm 5 mps 628 mmHg 71%
    17:00 0°C° 0.5 mm 4 mps 628 mmHg 81%
    18:00 -1°C° 1.1 mm 4 mps 628 mmHg 85%
    19:00 -1°C° 1.1 mm 4 mps 628 mmHg 89%
    20:00 -1°C° 1.1 mm 3 mps 628 mmHg 92%
    21:00 -2°C° 0.4 mm 3 mps 628 mmHg 92%
    22:00 -2°C° 0.4 mm 3 mps 628 mmHg 91%
    23:00 -4°C° 0.4 mm 3 mps 628 mmHg 91%
    Show more